VIR11 EGLL-KBOS

Flight info

Callsign VIR11
Flight time N/A
Altitude 36000
Route CPT L9 BIBPE DCT BUCGO DCT FELCA DCT NICXI DCT BAKUR DCT NEBIN/M082F370 NATD IBERG/N0471F380 N364A TUSKY DCT EURRO OOSHN5
Aircraft A346/H-SDE2E3FGHIJ3J4J5M1RWXY/LB1D1

Departure

Time 2026-05-07 11:11
Airport London Heathrow Airport (EGLL)

Arrival

Time N/A
Airport Boston Logan International Airport (KBOS)
Time Latitude Longitude Altitude Speed Heading
2026-05-07 10:31 51.47319 -0.46595 94 ft 0 kts 89°
2026-05-07 10:54 51.47319 -0.46633 96 ft 4 kts 90°
2026-05-07 10:55 51.47319 -0.46667 97 ft 4 kts 92°
2026-05-07 10:55 51.47323 -0.46703 96 ft 4 kts 118°
2026-05-07 10:55 51.47334 -0.46722 96 ft 4 kts 159°
2026-05-07 10:55 51.47354 -0.46726 95 ft 4 kts 180°
2026-05-07 10:56 51.47380 -0.46726 95 ft 3 kts 180°
2026-05-07 10:56 51.47383 -0.46726 95 ft 0 kts 180°
2026-05-07 11:01 51.47382 -0.46726 94 ft 1 kts 180°
2026-05-07 11:01 51.47368 -0.46726 94 ft 4 kts 180°
2026-05-07 11:02 51.47329 -0.46726 94 ft 8 kts 180°
2026-05-07 11:02 51.47279 -0.46725 94 ft 5 kts 178°
2026-05-07 11:02 51.47250 -0.46749 96 ft 6 kts 232°
2026-05-07 11:02 51.47227 -0.46816 96 ft 8 kts 238°
2026-05-07 11:03 51.47175 -0.46861 98 ft 10 kts 186°
2026-05-07 11:03 51.47099 -0.46864 94 ft 12 kts 180°
2026-05-07 11:03 51.47008 -0.46864 94 ft 14 kts 180°
2026-05-07 11:03 51.46940 -0.46864 94 ft 10 kts 180°
2026-05-07 11:04 51.46925 -0.46864 94 ft 0 kts 180°
2026-05-07 11:04 51.46923 -0.46864 94 ft 1 kts 180°
2026-05-07 11:04 51.46909 -0.46864 94 ft 3 kts 179°
2026-05-07 11:04 51.46876 -0.46863 95 ft 6 kts 179°
2026-05-07 11:05 51.46821 -0.46861 97 ft 9 kts 179°
2026-05-07 11:05 51.46759 -0.46896 98 ft 11 kts 239°
2026-05-07 11:05 51.46747 -0.47029 98 ft 13 kts 270°
2026-05-07 11:05 51.46746 -0.47188 98 ft 15 kts 270°
2026-05-07 11:06 51.46746 -0.47372 98 ft 18 kts 270°
2026-05-07 11:06 51.46745 -0.47589 94 ft 21 kts 270°
2026-05-07 11:06 51.46744 -0.47838 94 ft 24 kts 270°
2026-05-07 11:06 51.46743 -0.48112 94 ft 26 kts 269°
2026-05-07 11:07 51.46742 -0.48404 94 ft 27 kts 269°
2026-05-07 11:07 51.46741 -0.48599 94 ft 8 kts 269°
2026-05-07 11:07 51.46736 -0.48695 95 ft 9 kts 243°
2026-05-07 11:07 51.46675 -0.48741 98 ft 11 kts 188°
2026-05-07 11:08 51.46632 -0.48755 97 ft 0 kts 194°
2026-05-07 11:08 51.46626 -0.48757 96 ft 0 kts 194°
2026-05-07 11:08 51.46622 -0.48759 96 ft 1 kts 194°
2026-05-07 11:08 51.46610 -0.48764 98 ft 3 kts 194°
2026-05-07 11:09 51.46580 -0.48775 97 ft 6 kts 188°
2026-05-07 11:09 51.46533 -0.48771 94 ft 8 kts 161°
2026-05-07 11:09 51.46490 -0.48705 96 ft 10 kts 115°
2026-05-07 11:09 51.46480 -0.48608 95 ft 0 kts 91°
2026-05-07 11:10 51.46480 -0.48602 95 ft 4 kts 90°
2026-05-07 11:10 51.46479 -0.48244 97 ft 62 kts 90°
2026-05-07 11:10 51.46483 -0.47228 98 ft 117 kts 90°
2026-05-07 11:10 51.46489 -0.45653 94 ft 164 kts 90°
2026-05-07 11:11 51.46498 -0.43629 196 ft 193 kts 90°
2026-05-07 11:11 51.46483 -0.41443 675 ft 199 kts 95°
2026-05-07 11:11 51.46176 -0.39294 1329 ft 197 kts 120°
2026-05-07 11:11 51.45204 -0.37807 1931 ft 197 kts 157°
2026-05-07 11:12 51.43828 -0.37550 2270 ft 209 kts 193°
2026-05-07 11:12 51.42500 -0.38628 2574 ft 223 kts 216°
2026-05-07 11:12 51.41241 -0.40236 2872 ft 240 kts 220°
2026-05-07 11:12 51.40157 -0.42370 3207 ft 256 kts 247°
2026-05-07 11:13 51.39860 -0.45180 3782 ft 259 kts 276°
2026-05-07 11:13 51.40198 -0.48009 4565 ft 258 kts 284°
2026-05-07 11:13 51.40667 -0.50785 5330 ft 259 kts 285°
2026-05-07 11:13 51.41166 -0.53577 6097 ft 261 kts 285°
2026-05-07 11:14 51.41675 -0.56394 6822 ft 265 kts 285°
2026-05-07 11:14 51.42193 -0.59250 7520 ft 269 kts 285°
2026-05-07 11:14 51.42725 -0.62161 8236 ft 273 kts 287°
2026-05-07 11:14 51.43370 -0.65049 8958 ft 278 kts 290°
2026-05-07 11:15 51.44079 -0.67976 9641 ft 284 kts 291°
2026-05-07 11:15 51.44807 -0.70968 10286 ft 290 kts 291°
2026-05-07 11:15 51.45542 -0.74014 10742 ft 304 kts 290°
2026-05-07 11:15 51.46318 -0.77271 11072 ft 321 kts 290°
2026-05-07 11:16 51.47133 -0.80718 11393 ft 338 kts 290°
2026-05-07 11:16 51.47989 -0.84345 11702 ft 355 kts 290°
2026-05-07 11:16 51.48883 -0.88151 11999 ft 372 kts 290°
2026-05-07 11:16 51.49810 -0.92120 12486 ft 383 kts 290°
2026-05-07 11:17 51.50751 -0.96140 13237 ft 386 kts 290°
2026-05-07 11:17 51.51697 -1.00191 13999 ft 389 kts 290°
2026-05-07 11:17 51.52651 -1.04294 14630 ft 393 kts 289°
2026-05-07 11:17 51.53610 -1.08425 15282 ft 396 kts 289°
2026-05-07 11:18 51.54577 -1.12601 15948 ft 399 kts 289°
2026-05-07 11:18 51.55548 -1.16805 16620 ft 402 kts 289°
2026-05-07 11:18 51.56525 -1.21043 17277 ft 405 kts 289°
2026-05-07 11:18 51.57507 -1.25312 17936 ft 408 kts 289°
2026-05-07 11:19 51.58495 -1.29618 18529 ft 411 kts 289°
2026-05-07 11:19 51.59497 -1.33993 19092 ft 415 kts 289°
2026-05-07 11:19 51.60566 -1.38326 19641 ft 418 kts 292°
2026-05-07 11:19 51.61798 -1.42587 20190 ft 422 kts 295°
2026-05-07 11:20 51.63170 -1.46799 20750 ft 425 kts 297°
2026-05-07 11:20 51.64580 -1.51015 21290 ft 428 kts 297°
2026-05-07 11:20 51.65980 -1.55194 21823 ft 431 kts 297°
2026-05-07 11:20 51.67411 -1.59484 22355 ft 435 kts 297°
2026-05-07 11:21 51.68817 -1.63817 22870 ft 437 kts 294°
2026-05-07 11:21 51.69944 -1.68389 23375 ft 439 kts 286°
2026-05-07 11:21 51.70707 -1.73167 23843 ft 441 kts 279°
2026-05-07 11:21 51.71148 -1.78073 24271 ft 443 kts 276°
2026-05-07 11:22 51.71501 -1.83030 24681 ft 446 kts 275°
2026-05-07 11:22 51.71845 -1.88032 25083 ft 449 kts 275°
2026-05-07 11:22 51.72194 -1.93065 25483 ft 453 kts 275°
2026-05-07 11:22 51.72549 -1.98144 25890 ft 456 kts 275°
2026-05-07 11:23 51.72905 -2.03241 26300 ft 458 kts 275°
2026-05-07 11:23 51.73263 -2.08370 26693 ft 461 kts 275°
2026-05-07 11:23 51.73619 -2.13473 27063 ft 465 kts 275°
2026-05-07 11:23 51.73979 -2.18680 27447 ft 468 kts 275°
2026-05-07 11:24 51.74340 -2.23924 27815 ft 471 kts 275°
2026-05-07 11:24 51.74701 -2.29197 28222 ft 473 kts 275°
2026-05-07 11:24 51.75060 -2.34475 28762 ft 472 kts 275°
2026-05-07 11:24 51.75415 -2.39740 29337 ft 470 kts 275°
2026-05-07 11:25 51.75767 -2.44992 29900 ft 470 kts 275°
2026-05-07 11:25 51.76120 -2.50268 30365 ft 470 kts 275°
2026-05-07 11:25 51.76467 -2.55525 30788 ft 469 kts 275°
2026-05-07 11:25 51.76810 -2.60763 31221 ft 469 kts 275°
2026-05-07 11:26 51.77149 -2.65999 31671 ft 468 kts 275°
2026-05-07 11:26 51.77484 -2.71223 32147 ft 466 kts 275°
2026-05-07 11:26 51.77820 -2.76434 32593 ft 465 kts 275°
2026-05-07 11:26 51.78151 -2.81648 32943 ft 468 kts 275°
2026-05-07 11:27 51.78482 -2.86895 33204 ft 470 kts 275°
2026-05-07 11:27 51.78814 -2.92162 33590 ft 470 kts 275°
2026-05-07 11:27 51.79139 -2.97346 34035 ft 469 kts 274°
2026-05-07 11:27 51.79466 -3.02596 34384 ft 468 kts 274°
2026-05-07 11:28 51.79792 -3.07843 34638 ft 470 kts 274°
2026-05-07 11:28 51.80110 -3.13120 34874 ft 471 kts 274°
2026-05-07 11:28 51.80427 -3.18410 35171 ft 471 kts 274°
2026-05-07 11:28 51.80747 -3.23688 35459 ft 471 kts 274°
2026-05-07 11:29 51.81064 -3.28979 35694 ft 472 kts 274°
2026-05-07 11:29 51.81380 -3.34281 35902 ft 474 kts 274°
2026-05-07 11:29 51.81690 -3.39598 36048 ft 475 kts 274°
2026-05-07 11:29 51.81992 -3.44854 36051 ft 474 kts 274°
2026-05-07 11:30 51.82771 -3.55464 36045 ft 476 kts 277°
2026-05-07 11:30 51.84055 -3.65916 36047 ft 476 kts 280°
2026-05-07 11:31 51.85423 -3.76407 36042 ft 476 kts 280°
2026-05-07 11:31 51.86782 -3.86894 36042 ft 476 kts 279°
2026-05-07 11:32 51.88783 -4.02693 36044 ft 474 kts 280°
2026-05-07 11:33 51.90096 -4.13105 36047 ft 474 kts 280°
2026-05-07 11:33 51.91408 -4.23608 36047 ft 474 kts 279°
2026-05-07 11:34 51.92705 -4.34090 36042 ft 474 kts 280°
2026-05-07 11:34 51.93998 -4.44585 36045 ft 474 kts 279°
2026-05-07 11:35 51.95277 -4.55076 36041 ft 473 kts 279°
2026-05-07 11:35 51.96548 -4.65578 36042 ft 475 kts 279°
2026-05-07 11:36 51.97816 -4.76124 36041 ft 476 kts 279°
2026-05-07 11:36 51.99061 -4.86617 36039 ft 476 kts 279°
2026-05-07 11:37 52.00530 -4.97108 36036 ft 476 kts 284°
2026-05-07 11:37 52.02681 -5.07291 36033 ft 477 kts 291°
2026-05-07 11:38 52.05528 -5.17054 36034 ft 478 kts 297°
2026-05-07 11:38 52.08906 -5.26408 36034 ft 478 kts 300°
2026-05-07 11:39 52.12331 -5.35641 36030 ft 478 kts 300°
2026-05-07 11:39 52.15751 -5.44938 36034 ft 478 kts 300°
2026-05-07 11:40 52.19169 -5.54301 36026 ft 480 kts 299°
2026-05-07 11:40 52.22437 -5.63806 36029 ft 480 kts 295°
2026-05-07 11:41 52.25062 -5.73821 36026 ft 478 kts 288°
2026-05-07 11:41 52.27030 -5.84121 36029 ft 478 kts 284°
2026-05-07 11:42 52.28864 -5.94566 36029 ft 478 kts 284°
2026-05-07 11:42 52.30691 -6.05012 36018 ft 477 kts 284°
2026-05-07 11:43 52.32513 -6.15457 36009 ft 477 kts 284°
2026-05-07 11:43 52.34327 -6.25895 36009 ft 477 kts 284°
2026-05-07 11:44 52.36136 -6.36363 36003 ft 477 kts 284°
2026-05-07 11:44 52.37937 -6.46841 36013 ft 478 kts 284°
2026-05-07 11:45 52.39719 -6.57265 35997 ft 477 kts 283°
2026-05-07 11:45 52.41500 -6.67758 35997 ft 477 kts 283°
2026-05-07 11:46 52.43270 -6.78252 35995 ft 477 kts 283°
2026-05-07 11:46 52.44736 -6.86986 35998 ft 477 kts 283°
2026-05-07 11:47 52.46491 -6.97496 35993 ft 477 kts 283°
2026-05-07 11:47 52.48235 -7.08008 35996 ft 476 kts 283°
2026-05-07 11:48 52.49965 -7.18501 35991 ft 476 kts 283°
2026-05-07 11:48 52.51689 -7.29019 35980 ft 476 kts 283°
2026-05-07 11:49 52.53400 -7.39530 35983 ft 476 kts 283°
2026-05-07 11:49 52.55107 -7.50064 35977 ft 476 kts 283°
2026-05-07 11:50 52.56789 -7.60522 35977 ft 475 kts 282°
2026-05-07 11:50 52.58470 -7.71044 35972 ft 475 kts 282°
2026-05-07 11:51 52.60142 -7.81578 35971 ft 475 kts 282°
2026-05-07 11:51 52.61804 -7.92112 35967 ft 475 kts 282°
2026-05-07 11:52 52.63458 -8.02657 35969 ft 475 kts 282°